DELTA 1 DEB, 39098

Orbit data source: Space-Track

DELTA 1 DEB, 39098 is space debris in LEO originally from a launch on Thu, 14 Jul 1977 UTC launched from the Air Force Eastern Test Range (AFETR). Debris objects in space refer to the collection of defunct objects orbiting the Earth. Examples of debris include non-operational satellites, rocket bodies, and fragments generated from explosions, collisions, or faulty payload assembly.

Loading next visibility...
Identifier
39098, 1977-065GK
Orbit
LEO
Country
Flag of USUS
Related business
Manufacturer
Unknown
Mission
Spacecraft
Bus & Motor
Unknown
Mass
Unknown
Launch date (UTC)
1977-07-14 (48 years ago)
Launch vehicle
Unknown
Launch site
Air Force Eastern Test Range (AFETR)
Object type
Payload
Rocket body
Debris
Shape & HBR
Unknown shape, 0.1 m
Radar Cross Section
Small (<0.1 m²)

Expand to show TLE details & history
Last TLE update: 2 days ago

TLE from 2 days ago
0 DELTA 1 DEB
1 39098U 77065GK  25347.12273265  .00012816  00000-0  21364-2 0  9999
2 39098  29.0357 323.9257 0525942 344.1827  14.2874 14.05410894599144
Epoch: 2025-12-13T02:56Z
TLE epoch observation values (Epoch: 2025-12-13T02:56:44.100Z)
Latitude
-0.00005°
Longitude
-162.31267°
Altitude
505.256 km
Speed
7.804 km/s
True Right ascension
21h 35m 42s
True Declination
0° 00' 00"
Sunlit
Object was in daylight at epoch
Visualization orbit readout
Latitude
Unknown
Longitude
Unknown
Altitude
Unknown
Speed
Unknown
Apparent Right ascension
Unknown
Apparent Declination
Unknown
Sunlit
N/A
Visualization observer readout
Local Sidereal Time
12:00:27
Azimuth
Unknown
Elevation
Unknown
Doppler factor
Unknown
Orbital elements
Apogee altitude
1,260.754 km
Perigee altitude
497.38 km
Semi-major axis
7,257.204 km
Eccentricity
0.05259
Inclination
29.0357°
RAAN
323.9257°
Arg. of periapsis
344.1827°
True anomaly
15.87544°
Mean anomaly
14.2874°
Eccentric anomaly
15.07094°
Mean motion
3.51066 °/min
Orbital period
102.54 mins
BSTAR
0.0021364
Loading maneuver chart data...
Computing Atmospheric mass density...
Loading historical data...
Loading historical data...
Loading historical data...
Loading historical data...
Loading historical data...
Loading historical data...
Loading historical data...

Documentation

Showing up to 5 results
|